| time (UTC) | temp F | wind direction | speed MPH | gust MPH | rain 1hr in | rain 24hr in | rain mn in | humidity % | barometer mb |
| 20260503210050 | 84 | 138 | 6.0 | 12.0 | 0.00 | 0.00 | 0.00 | 31 | 1016.8 |
| 20260503205550 | 84 | 200 | 6.0 | 13.0 | 0.00 | 0.00 | 0.00 | 31 | 1017.0 |
| 20260503205050 | 84 | 159 | 5.0 | 13.0 | 0.00 | 0.00 | 0.00 | 30 | 1017.1 |
| 20260503204550 | 84 | 171 | 6.0 | 13.0 | 0.00 | 0.00 | 0.00 | 32 | 1017.0 |
| 20260503204049 | 84 | 172 | 5.0 | 14.0 | 0.00 | 0.00 | 0.00 | 32 | 1017.2 |
| 20260503203551 | 84 | 155 | 4.0 | 14.0 | 0.00 | 0.00 | 0.00 | 31 | 1017.3 |
| 20260503203335 | 84 | 255 | 4.0 | 10.0 | 0.00 | 0.00 | 0.00 | 33 | 1017.3 |
| 20260503202548 | 83 | 189 | 4.0 | 12.0 | 0.00 | 0.00 | 0.00 | 36 | 1017.3 |
| 20260503202151 | 84 | 209 | 3.0 | 9.0 | 0.00 | 0.00 | 0.00 | 34 | 1017.5 |
| 20260503202120 | 84 | 107 | 4.0 | 12.0 | 0.00 | 0.00 | 0.00 | 33 | 1017.5 |
| 20260503201048 | 83 | 269 | 3.0 | 9.0 | 0.00 | 0.00 | 0.00 | 35 | 1017.6 |
| 20260503200548 | 84 | 246 | 3.0 | 7.0 | 0.00 | 0.00 | 0.00 | 34 | 1017.6 |
| 20260503200052 | 83 | 176 | 3.0 | 9.0 | 0.00 | 0.00 | 0.00 | 33 | 1017.7 |
| 20260503195548 | 83 | 157 | 4.0 | 12.0 | 0.00 | 0.00 | 0.00 | 32 | 1017.8 |
| 20260503195048 | 83 | 18 | 5.0 | 12.0 | 0.00 | 0.00 | 0.00 | 34 | 1018.0 |
| 20260503194548 | 83 | 142 | 4.0 | 13.0 | 0.00 | 0.00 | 0.00 | 33 | 1018.0 |
| 20260503194048 | 83 | 186 | 4.0 | 13.0 | 0.00 | 0.00 | 0.00 | 33 | 1018.1 |
| 20260503193547 | 83 | 160 | 4.0 | 9.0 | 0.00 | 0.00 | 0.00 | 34 | 1018.1 |
| 20260503193048 | 83 | 211 | 4.0 | 11.0 | 0.00 | 0.00 | 0.00 | 36 | 1018.2 |
| 20260503192549 | 83 | 218 | 4.0 | 11.0 | 0.00 | 0.00 | 0.00 | 35 | 1018.3 |
| 20260503192048 | 83 | 191 | 4.0 | 10.0 | 0.00 | 0.00 | 0.00 | 34 | 1018.5 |
| 20260503191548 | 83 | 153 | 4.0 | 10.0 | 0.00 | 0.00 | 0.00 | 36 | 1018.4 |
| 20260503191048 | 83 | 252 | 3.0 | 9.0 | 0.00 | 0.00 | 0.00 | 36 | 1018.7 |
| 20260503190548 | 83 | 175 | 4.0 | 9.0 | 0.00 | 0.00 | 0.00 | 36 | 1018.6 |
| 20260503190048 | 83 | 277 | 4.0 | 13.0 | 0.00 | 0.00 | 0.00 | 37 | 1018.6 |
| 20260503185548 | 82 | 152 | 4.0 | 13.0 | 0.00 | 0.00 | 0.00 | 36 | 1018.7 |
| 20260503185048 | 82 | 169 | 4.0 | 9.0 | 0.00 | 0.00 | 0.00 | 37 | 1018.9 |
| 20260503184546 | 82 | 184 | 4.0 | 10.0 | 0.00 | 0.00 | 0.00 | 38 | 1018.8 |
| 20260503184046 | 82 | 182 | 4.0 | 11.0 | 0.00 | 0.00 | 0.00 | 36 | 1018.9 |
| 20260503183842 | 81 | 182 | 5.0 | 14.0 | 0.00 | 0.00 | 0.00 | 37 | 1019.0 |
| 20260503183045 | 81 | 175 | 5.0 | 14.0 | 0.00 | 0.00 | 0.00 | 35 | 1019.2 |
| 20260503182842 | 81 | 154 | 4.0 | 11.0 | 0.00 | 0.00 | 0.00 | 38 | 1019.1 |
| 20260503182050 | 81 | 243 | 3.0 | 8.0 | 0.00 | 0.00 | 0.00 | 41 | 1019.2 |
| 20260503181546 | 81 | 157 | 3.0 | 7.0 | 0.00 | 0.00 | 0.00 | 42 | 1019.3 |
| 20260503181046 | 81 | 111 | 3.0 | 8.0 | 0.00 | 0.00 | 0.00 | 41 | 1019.4 |
| 20260503180546 | 81 | 225 | 3.0 | 8.0 | 0.00 | 0.00 | 0.00 | 40 | 1019.6 |
| 20260503180146 | 81 | 261 | 3.0 | 10.0 | 0.00 | 0.00 | 0.00 | 41 | 1019.9 |
| 20260503180123 | 81 | 344 | 2.0 | 8.0 | 0.00 | 0.00 | 0.00 | 41 | 1019.7 |
| 20260503175045 | 81 | 15 | 3.0 | 10.0 | 0.00 | 0.00 | 0.00 | 43 | 1019.9 |
| 20260503174546 | 81 | 125 | 3.0 | 8.0 | 0.00 | 0.00 | 0.00 | 43 | 1020.0 |
| 20260503174045 | 81 | 196 | 3.0 | 8.0 | 0.00 | 0.00 | 0.00 | 43 | 1020.1 |
| 20260503173546 | 81 | 342 | 3.0 | 11.0 | 0.00 | 0.00 | 0.00 | 43 | 1020.1 |
| 20260503173043 | 81 | 300 | 3.0 | 11.0 | 0.00 | 0.00 | 0.00 | 42 | 1020.1 |
| 20260503172836 | 81 | 244 | 4.0 | 10.0 | 0.00 | 0.00 | 0.00 | 46 | 1020.2 |
| 20260503172043 | 80 | 160 | 4.0 | 10.0 | 0.00 | 0.00 | 0.00 | 45 | 1020.3 |
| 20260503171835 | 80 | 213 | 5.0 | 12.0 | 0.00 | 0.00 | 0.00 | 45 | 1020.4 |
| 20260503171338 | 80 | 155 | 4.0 | 12.0 | 0.00 | 0.00 | 0.00 | 44 | 1020.4 |
| 20260503170544 | 80 | 34 | 4.0 | 8.0 | 0.00 | 0.00 | 0.00 | 44 | 1020.5 |
| 20260503170158 | 80 | 188 | 4.0 | 10.0 | 0.00 | 0.00 | 0.00 | 45 | 1020.7 |
| 20260503170134 | 80 | 150 | 5.0 | 10.0 | 0.00 | 0.00 | 0.00 | 45 | 1020.6 |
| 20260503150533 | 73 | 157 | 4.0 | 9.0 | 0.00 | 0.00 | 0.00 | 55 | 1020.9 |
| 20260503131005 | 61 | 211 | 3.0 | 6.0 | 0.00 | 0.00 | 0.00 | 73 | 1020.7 |
| 20260503130802 | 60 | 184 | 2.0 | 6.0 | 0.00 | 0.00 | 0.00 | 74 | 1020.9 |
| 20260503110457 | 57 | 190 | 1.0 | 4.0 | 0.00 | 0.00 | 0.00 | 76 | 1019.7 |
| 20260503081431 | 59 | 196 | 0.0 | 0.0 | 0.00 | 0.00 | 0.00 | 71 | 1019.5 |
| 20260503080932 | 59 | 196 | 0.0 | 0.0 | 0.00 | 0.00 | 0.00 | 70 | 1019.5 |
| 20260503080432 | 59 | 196 | 0.0 | 0.0 | 0.00 | 0.00 | 0.00 | 70 | 1019.6 |
| 20260503072427 | 60 | 190 | 1.0 | 4.0 | 0.00 | 0.00 | 0.00 | 68 | 1019.7 |
| 20260503071923 | 60 | 156 | 1.0 | 5.0 | 0.00 | 0.00 | 0.00 | 68 | 1019.8 |
| 20260503071723 | 60 | 188 | 2.0 | 5.0 | 0.00 | 0.00 | 0.00 | 69 | 1019.8 |
| 20260503070923 | 60 | 167 | 2.0 | 5.0 | 0.00 | 0.00 | 0.00 | 69 | 1019.9 |
| 20260503070423 | 60 | 128 | 1.0 | 5.0 | 0.00 | 0.00 | 0.00 | 69 | 1019.9 |
| 20260503054917 | 63 | 176 | 1.0 | 3.0 | 0.00 | 0.00 | 0.00 | 59 | 1019.5 |
| 20260503054417 | 63 | 199 | 1.0 | 3.0 | 0.00 | 0.00 | 0.00 | 59 | 1019.5 |
| 20260503053920 | 63 | 206 | 1.0 | 3.0 | 0.00 | 0.00 | 0.00 | 59 | 1019.5 |
| 20260503053415 | 63 | 186 | 1.0 | 4.0 | 0.00 | 0.00 | 0.00 | 59 | 1019.5 |
| 20260503053213 | 63 | 185 | 1.0 | 4.0 | 0.00 | 0.00 | 0.00 | 58 | 1019.6 |
| 20260503052413 | 63 | 153 | 0.0 | 3.0 | 0.00 | 0.00 | 0.00 | 58 | 1019.6 |
| 20260503051912 | 64 | 163 | 1.0 | 2.0 | 0.00 | 0.00 | 0.00 | 58 | 1019.4 |
| 20260503051412 | 64 | 170 | 1.0 | 3.0 | 0.00 | 0.00 | 0.00 | 58 | 1019.5 |
| 20260503051006 | 64 | 157 | 1.0 | 4.0 | 0.00 | 0.00 | 0.00 | 58 | 1019.4 |
| 20260503050943 | 64 | 140 | 1.0 | 4.0 | 0.00 | 0.00 | 0.00 | 58 | 1019.5 |
| 20260503045907 | 64 | 171 | 1.0 | 4.0 | 0.00 | 0.00 | 0.00 | 58 | 1019.5 |
| 20260503045658 | 64 | 167 | 1.0 | 4.0 | 0.00 | 0.00 | 0.00 | 58 | 1019.4 |
| 20260503044904 | 64 | 153 | 1.0 | 4.0 | 0.00 | 0.00 | 0.00 | 58 | 1019.3 |
| 20260503044404 | 64 | 152 | 1.0 | 4.0 | 0.00 | 0.00 | 0.00 | 59 | 1019.4 |
| 20260503044159 | 64 | 165 | 1.0 | 4.0 | 0.00 | 0.00 | 0.00 | 59 | 1019.4 |
| 20260503043655 | 64 | 170 | 1.0 | 5.0 | 0.00 | 0.00 | 0.00 | 59 | 1019.5 |
| 20260503043152 | 64 | 158 | 1.0 | 5.0 | 0.00 | 0.00 | 0.00 | 60 | 1019.4 |
| 20260503042400 | 64 | 178 | 1.0 | 4.0 | 0.00 | 0.00 | 0.00 | 60 | 1019.4 |
| 20260503041902 | 63 | 171 | 1.0 | 3.0 | 0.00 | 0.00 | 0.00 | 61 | 1019.4 |
| 20260503041402 | 63 | 161 | 0.0 | 2.0 | 0.00 | 0.00 | 0.00 | 61 | 1019.4 |
| 20260503040901 | 63 | 157 | 0.0 | 2.0 | 0.00 | 0.00 | 0.00 | 61 | 1019.4 |
| 20260503040400 | 63 | 173 | 0.0 | 2.0 | 0.00 | 0.00 | 0.00 | 61 | 1019.3 |
| 20260503035900 | 63 | 173 | 0.0 | 2.0 | 0.00 | 0.00 | 0.00 | 61 | 1019.4 |
| 20260503035401 | 63 | 169 | 0.0 | 1.0 | 0.00 | 0.00 | 0.00 | 61 | 1019.4 |
| 20260503034900 | 63 | 169 | 0.0 | 1.0 | 0.00 | 0.00 | 0.00 | 60 | 1019.4 |
| 20260503034400 | 63 | 169 | 0.0 | 1.0 | 0.00 | 0.00 | 0.00 | 60 | 1019.4 |
| 20260503034150 | 63 | 169 | 0.0 | 1.0 | 0.00 | 0.00 | 0.00 | 59 | 1019.4 |
| 20260503033400 | 63 | 169 | 0.0 | 1.0 | 0.00 | 0.00 | 0.00 | 59 | 1019.4 |
| 20260503032901 | 64 | 169 | 0.0 | 1.0 | 0.00 | 0.00 | 0.00 | 58 | 1019.3 |
| 20260503032402 | 64 | 169 | 0.0 | 0.0 | 0.00 | 0.00 | 0.00 | 58 | 1019.3 |
| 20260503032154 | 64 | 169 | 0.0 | 0.0 | 0.00 | 0.00 | 0.00 | 57 | 1019.3 |
| 20260503031400 | 64 | 169 | 0.0 | 0.0 | 0.00 | 0.00 | 0.00 | 57 | 1019.3 |
| 20260503031158 | 65 | 169 | 0.0 | 0.0 | 0.00 | 0.00 | 0.00 | 56 | 1019.3 |
| 20260503030405 | 65 | 169 | 0.0 | 0.0 | 0.00 | 0.00 | 0.00 | 56 | 1019.2 |
| 20260503025900 | 65 | 169 | 0.0 | 0.0 | 0.00 | 0.00 | 0.00 | 56 | 1019.2 |
| 20260503025657 | 65 | 169 | 0.0 | 2.0 | 0.00 | 0.00 | 0.00 | 55 | 1019.1 |
| 20260503025158 | 65 | 169 | 0.0 | 2.0 | 0.00 | 0.00 | 0.00 | 55 | 1019.0 |
| 20260503024701 | 65 | 169 | 0.0 | 1.0 | 0.00 | 0.00 | 0.00 | 55 | 1018.9 |
| 20260503023901 | 66 | 169 | 0.0 | 0.0 | 0.00 | 0.00 | 0.00 | 54 | 1018.9 |
| 20260503023400 | 66 | 169 | 0.0 | 0.0 | 0.00 | 0.00 | 0.00 | 53 | 1019.0 |
| 20260503022903 | 66 | 169 | 0.0 | 0.0 | 0.00 | 0.00 | 0.00 | 52 | 1018.9 |
| 20260503022400 | 67 | 169 | 0.0 | 0.0 | 0.00 | 0.00 | 0.00 | 52 | 1018.9 |
| 20260503021902 | 67 | 169 | 0.0 | 0.0 | 0.00 | 0.00 | 0.00 | 52 | 1019.0 |
| 20260503021710 | 67 | 169 | 0.0 | 0.0 | 0.00 | 0.00 | 0.00 | 51 | 1018.9 |
| 20260503020900 | 68 | 169 | 0.0 | 0.0 | 0.00 | 0.00 | 0.00 | 51 | 1018.8 |
| 20260503020649 | 68 | 169 | 0.0 | 0.0 | 0.00 | 0.00 | 0.00 | 50 | 1018.8 |
| 20260503015858 | 69 | 169 | 0.0 | 0.0 | 0.00 | 0.00 | 0.00 | 49 | 1018.8 |
| 20260503015358 | 69 | 169 | 0.0 | 1.0 | 0.00 | 0.00 | 0.00 | 49 | 1018.7 |
| 20260503014856 | 69 | 169 | 0.0 | 1.0 | 0.00 | 0.00 | 0.00 | 48 | 1018.7 |
| 20260503014706 | 69 | 169 | 0.0 | 1.0 | 0.00 | 0.00 | 0.00 | 48 | 1018.7 |
| 20260503013856 | 70 | 169 | 0.0 | 2.0 | 0.00 | 0.00 | 0.00 | 48 | 1018.5 |
| 20260503013358 | 70 | 168 | 0.0 | 2.0 | 0.00 | 0.00 | 0.00 | 47 | 1018.6 |
| 20260503012856 | 71 | 175 | 1.0 | 2.0 | 0.00 | 0.00 | 0.00 | 46 | 1018.6 |
| 20260503012354 | 71 | 154 | 1.0 | 2.0 | 0.00 | 0.00 | 0.00 | 46 | 1018.5 |
| 20260503011854 | 71 | 192 | 1.0 | 3.0 | 0.00 | 0.00 | 0.00 | 46 | 1018.5 |
| 20260503011358 | 71 | 175 | 1.0 | 3.0 | 0.00 | 0.00 | 0.00 | 45 | 1018.5 |
| 20260503010854 | 72 | 194 | 1.0 | 3.0 | 0.00 | 0.00 | 0.00 | 45 | 1018.5 |
| 20260503010354 | 72 | 173 | 1.0 | 3.0 | 0.00 | 0.00 | 0.00 | 45 | 1018.4 |
| 20260503005854 | 72 | 162 | 1.0 | 4.0 | 0.00 | 0.00 | 0.00 | 44 | 1018.4 |
| 20260503005500 | 73 | 198 | 1.0 | 4.0 | 0.00 | 0.00 | 0.00 | 43 | 1018.3 |
| 20260503005432 | 73 | 178 | 1.0 | 4.0 | 0.00 | 0.00 | 0.00 | 44 | 1018.4 |
| 20260503004701 | 73 | 156 | 2.0 | 4.0 | 0.00 | 0.00 | 0.00 | 43 | 1018.3 |
| 20260503003852 | 73 | 177 | 1.0 | 3.0 | 0.00 | 0.00 | 0.00 | 42 | 1018.4 |
| 20260503003354 | 74 | 157 | 1.0 | 4.0 | 0.00 | 0.00 | 0.00 | 42 | 1018.2 |
| 20260503003147 | 74 | 197 | 1.0 | 5.0 | 0.00 | 0.00 | 0.00 | 41 | 1018.3 |
| 20260503002352 | 74 | 187 | 1.0 | 5.0 | 0.00 | 0.00 | 0.00 | 41 | 1018.3 |
| 20260503001850 | 75 | 276 | 1.0 | 6.0 | 0.00 | 0.00 | 0.00 | 40 | 1018.4 |
| 20260503001457 | 76 | 248 | 1.0 | 4.0 | 0.00 | 0.00 | 0.00 | 39 | 1018.3 |
| 20260503001435 | 76 | 172 | 1.0 | 6.0 | 0.00 | 0.00 | 0.00 | 39 | 1018.2 |
| 20260503000354 | 77 | 242 | 1.0 | 4.0 | 0.00 | 0.00 | 0.00 | 38 | 1018.3 |
| 20260502235850 | 78 | 253 | 1.0 | 4.0 | 0.00 | 0.00 | 0.00 | 37 | 1018.3 |
| 20260502235350 | 78 | 151 | 1.0 | 3.0 | 0.00 | 0.00 | 0.00 | 36 | 1018.3 |
| 20260502235146 | 78 | 271 | 1.0 | 3.0 | 0.00 | 0.00 | 0.00 | 36 | 1018.4 |
| 20260502234348 | 79 | 175 | 1.0 | 5.0 | 0.00 | 0.00 | 0.00 | 36 | 1018.4 |
| 20260502233848 | 79 | 146 | 1.0 | 5.0 | 0.00 | 0.00 | 0.00 | 36 | 1018.3 |
| 20260502233348 | 79 | 239 | 2.0 | 5.0 | 0.00 | 0.00 | 0.00 | 36 | 1018.3 |
| 20260502232848 | 79 | 267 | 2.0 | 5.0 | 0.00 | 0.00 | 0.00 | 36 | 1018.5 |
| 20260502232348 | 78 | 217 | 2.0 | 5.0 | 0.00 | 0.00 | 0.00 | 36 | 1018.5 |
| 20260502231848 | 78 | 209 | 2.0 | 5.0 | 0.00 | 0.00 | 0.00 | 38 | 1018.5 |
| 20260502231348 | 78 | 217 | 2.0 | 5.0 | 0.00 | 0.00 | 0.00 | 36 | 1018.5 |
| 20260502231147 | 79 | 178 | 1.0 | 5.0 | 0.00 | 0.00 | 0.00 | 36 | 1018.5 |
| 20260502230348 | 78 | 258 | 1.0 | 4.0 | 0.00 | 0.00 | 0.00 | 37 | 1018.6 |
| 20260502230155 | 78 | 327 | 1.0 | 5.0 | 0.00 | 0.00 | 0.00 | 35 | 1018.5 |
| 20260502225352 | 79 | 326 | 2.0 | 5.0 | 0.00 | 0.00 | 0.00 | 35 | 1018.6 |
| 20260502224947 | 79 | 148 | 3.0 | 6.0 | 0.00 | 0.00 | 0.00 | 35 | 1018.6 |
| 20260502224922 | 79 | 237 | 2.0 | 5.0 | 0.00 | 0.00 | 0.00 | 36 | 1018.7 |
| 20260502223846 | 78 | 156 | 3.0 | 7.0 | 0.00 | 0.00 | 0.00 | 36 | 1018.6 |
| 20260502223347 | 78 | 173 | 3.0 | 7.0 | 0.00 | 0.00 | 0.00 | 35 | 1018.7 |
| 20260502223305 | 79 | 217 | 3.0 | 7.0 | 0.00 | 0.00 | 0.00 | 35 | 1018.7 |
| 20260502222720 | 79 | 279 | 3.0 | 7.0 | 0.00 | 0.00 | 0.00 | 35 | 1018.7 |
| 20260502221639 | 78 | 222 | 3.0 | 10.0 | 0.00 | 0.00 | 0.00 | 35 | 1018.8 |
| 20260502220844 | 78 | 146 | 3.0 | 10.0 | 0.00 | 0.00 | 0.00 | 37 | 1018.7 |
| 20260502220343 | 79 | 154 | 3.0 | 7.0 | 0.00 | 0.00 | 0.00 | 36 | 1018.8 |
| 20260502215844 | 78 | 279 | 2.0 | 6.0 | 0.00 | 0.00 | 0.00 | 36 | 1018.7 |
| 20260502215344 | 78 | 130 | 2.0 | 6.0 | 0.00 | 0.00 | 0.00 | 35 | 1018.8 |
| 20260502214844 | 79 | 338 | 2.0 | 5.0 | 0.00 | 0.00 | 0.00 | 37 | 1019.0 |
| 20260502214340 | 78 | 286 | 2.0 | 5.0 | 0.00 | 0.00 | 0.00 | 35 | 1019.0 |
| 20260502213843 | 79 | 257 | 2.0 | 5.0 | 0.00 | 0.00 | 0.00 | 34 | 1019.0 |
| 20260502213340 | 79 | 259 | 2.0 | 8.0 | 0.00 | 0.00 | 0.00 | 35 | 1019.1 |
| 20260502212840 | 79 | 286 | 3.0 | 8.0 | 0.00 | 0.00 | 0.00 | 35 | 1019.1 |
| 20260502212634 | 79 | 234 | 3.0 | 8.0 | 0.00 | 0.00 | 0.00 | 35 | 1019.1 |
| 20260502211838 | 78 | 168 | 2.0 | 8.0 | 0.00 | 0.00 | 0.00 | 36 | 1019.2 |
| 20260502211338 | 78 | 96 | 2.0 | 6.0 | 0.00 | 0.00 | 0.00 | 35 | 1019.3 |
| 20260502210837 | 78 | 325 | 3.0 | 6.0 | 0.00 | 0.00 | 0.00 | 34 | 1019.3 |